Regional Weather Roundup
Issued by NWS State College, PA

Home | Current Version | Previous Version | Text Only | Print | Product List | Glossary On
Versions: 1 2 3 4 5 6 7 8 9 10 11 12 13 14 15 16 17 18 19 20 21 22 23 24 25 26 27 28 29 30 31 32 33 34 35 36 37 38 39 40 41 42 43 44 45 46 47 48 49 50
000
ASUS41 KCTP 070403
RWRCTP

REGIONAL WEATHER ROUNDUP
NATIONAL WEATHER SERVICE STATE COLLEGE PA
1100 PM EST SAT FEB 06 2016

Note: "fair" indicates few or no clouds below 12,000 feet with no
significant weather and/or obstructions to visibility.

* = STATION THAT DOES NOT REPORT PRECIPITATION /E.G. RAIN...SNOW...ETC/
    THUNDER OR FOG.

PAZ002>004-007>009-013>016-020>023-029>032-070500-
WESTERN PENNSYLVANIA

CITY           SKY/WX    TMP DP  RH WIND       PRES   REMARKS
ERIE           PTCLDY    30  19  63 S5        30.18S
MEADVILLE      PTCLDY    30  16  56 SW6       30.16S
FRANKLIN*      CLEAR     28  14  54 SW6       30.18S
NEW CASTLE     FAIR      30  17  58 SW3       30.20F
BEAVER COUNTY  NOT AVBL
BUTLER*        CLEAR     30  10  43 SW3       30.22F
PITTSBURGH INT CLEAR     30  14  51 S5        30.19F
PITTSBURGH     CLEAR     35  13  40 S6        30.20F
INDIANA*       CLEAR     25  21  86 CALM      30.22F
LATROBE        CLEAR     27  16  63 CALM      30.22F
WASHINGTON CO* CLEAR     25  16  68 CALM      30.20F
$$

PAZ004>006-010>012-017>019-024>028-033>037-041-042-045-046-049>053-070500-
CENTRAL PENNSYLVANIA

CITY           SKY/WX    TMP DP  RH WIND       PRES   REMARKS
BRADFORD       CLEAR     28  14  55 S3        30.12F
DUBOIS         CLEAR     29  14  53 SW6       30.14F
CLEARFIELD     CLEAR     27  19  72 S5        30.17F
JOHNSTOWN      CLEAR     30  12  47 W5        30.15F
ALTOONA        CLEAR     28  18  66 SW6       30.20S
STATE COLLEGE  CLEAR     31  18  59 SW7       30.19F
WILLIAMSPORT   CLEAR     29  20  69 CALM      30.22S
SELINSGROVE    CLEAR     31  20  63 SW5       30.24F
FT INDIANTOWN  PTCLDY    25  24  95 CALM      30.26F
CAPITAL CITY   CLEAR     30  20  66 CALM      30.26F
HARRISBURG     CLEAR     30  20  66 E3        30.26F
YORK           PTCLDY    24  18  77 CALM      30.25F
$$

PAZ038>040-043-044-047-048-054-055-060>062-067>071-070500-
EASTERN PENNSYLVANIA

CITY           SKY/WX    TMP DP  RH WIND       PRES   REMARKS
SCRANTON       CLEAR     29  18  63 S3        30.21F
MOUNT POCONO   CLEAR     26  17  68 W3        30.17F
ALLENTOWN      PTCLDY    28  20  71 CALM      30.27S
QUAKERTOWN*    PTCLDY    25  23  93 CALM      30.27F
READING        PTCLDY    31  20  63 CALM      30.27F
LANCASTER      CLEAR     29  22  75 E3        30.27F HAZE
COATESVILLE    CLEAR     32  23  69 CALM      30.28S
POTTSTOWN      CLOUDY    27  20  75 CALM      30.29F
BLUE BELL        N/A     28  27  93 CALM      30.28F
DOYLESTOWN     PTCLDY    30  22  72 S3        30.27F
WILLOW GROVE   NOT AVBL
NORTH PHILA    PTCLDY    35  25  66 SW3       30.31F
PHILADELPHIA   PTCLDY    33  26  75 CALM      30.31F
$$



USA.gov is the U.S. government's official web portal to all federal, state and local government web resources and services.